Showing default

BULGARIASAT-1, 42801

Orbit data source: Space-Track

BULGARIASAT-1, 42801 is a payload satellite owned by Bulgaria Sat (BG) in GEO that was launched on Fri, 23 Jun 2017 UTC via an FALCON 9 launch vehicle from the Air Force Eastern Test Range (AFETR). Payloads include a variety of satellites, spacecraft, and rockets equipped with specific instruments for various scientific and technological missions. These include communications satellites like Starlink; space stations such as the ISS; scientific satellites like the Hubble; Earth observation satellites from companies like Planet Labs, Umbra, and HawkEye 360; GPS; miniature CubeSats for education and research; and military/defense satellites.

Not visible in the next 10 days
BULGARIASAT-1 details
Identifier
42801, 2017-038A
Orbit
GEO
Last TLE update12 hours ago
Origin
Flag of BGBulgaria Sat (BG / BGR)
ManufacturerSS/Loral (MDA)
MissionOperational Commercial Communications
Bus & MotorSSL-1300, R-4D-15-300
Mass~4,000 kg wet, ~3,000 kg dry
Launch date (UTC)
2017-06-23 (8 years ago)
Launch vehicle
FALCON 9
Launch site
Air Force Eastern Test Range (AFETR)
Object type
Payload
Rocket body
Debris
Shape & HBRBox + 2 Pan, 31 m
Radar Cross Section40.765 m², Large (>1 m²)

Expand to show TLE details & history

TLE from 12 hours ago
0 BULGARIASAT-1
1 42801U 17038A   24361.20257542  .00000040  00000-0  00000-0 0  9991
2 42801   0.0268  84.1897 0002724 193.9547 251.8665  1.00272277 27441
Epoch: 2024-12-26T04:51Z
Definitive object data (Epoch: 2024-12-26T04:51:42.516Z)
Latitude0.02245°
Longitude1.8611°
Altitude35,789.523 km
Speed3.074 km/s
True Right ascension11h 19m 53s
True Declination0° 01' 21"
Sunlit
Object was in daylight at TLE epoch
Visualization TLE readout
Latitude-0.0231°
Longitude-174.67083°
Altitude35,783.005 km
Speed3.075 km/s
Apparent Right ascension23h 58m 17s
Apparent Declination-5° 19' 34"
Sunlit
Object is in daylight
Visualization observer readout
Local Sidereal Time16:25:36
Azimuth78.863° E
Elevation-21.104°
Doppler factor1
Orbital elements
Apogee altitude35,799.013 km
Perigee altitude35,776.041 km
Semi-major axis42,165.664 km
Eccentricity0.0002724
Inclination0.0268°
RAAN84.1897°
Arg. of periapsis193.9547°
True anomaly251.83684°
Mean anomaly251.8665°
Eccentric anomaly251.85167°
Mean motion0.25067 °/min
BSTARUnknown
Orbital period1436.14 mins
Loading historical data...
42801 neighbors
Authenticating...
Loading maneuver chart data...
Loading historical data...
Loading historical data...
Loading historical data...
Loading historical data...
Loading historical data...
Loading historical data...
Loading historical data...
Other satellites on launch #38 in the year 2017 (2017-06-23 UTC)

BULGARIASAT-1 Visibility forecast

Observer location: undefined°, undefined

BULGARIASAT-1 is not visible in the next 10 days
Span
Click to sort rows by Start time (UTC) header in descending order
Start Az.
Max El. time (UTC)
Max El. Az.
Max El.
End time (UTC)
End Az.
|